Location: Melbourne
(37.8170°S, 144.9670°E)
Time: 23:37:50
(UTC+11:00)

Transit 2A - All Passes

Search period start: 10 December 2016 00:00
Search period end: 20 December 2016 00:00
Orbit: 597 x 963 km, 66.7° (Epoch: 08 December)

Date Brightness Start Highest point End Pass type
(mag) Time Alt. Az. Time Alt. Az. Time Alt. Az.
10 Dec - 05:05:09 10° SSW 05:10:44 39° SE 05:16:36 10° ENE visible
10 Dec - 06:48:28 10° SW 06:53:55 35° WNW 06:59:34 10° N daylight
10 Dec - 19:44:20 10° N 19:48:27 36° ENE 19:52:53 10° SE daylight
10 Dec - 21:27:56 10° WNW 21:31:44 24° SW 21:35:48 10° S visible
11 Dec - 04:31:26 10° S 04:36:34 29° SE 04:41:56 10° ENE visible
11 Dec - 06:14:11 10° SW 06:20:01 50° WNW 06:26:08 10° N daylight
11 Dec - 19:11:07 10° NNE 19:14:39 23° ENE 19:18:25 10° SE daylight
11 Dec - 20:53:20 10° WNW 20:57:32 35° SW 21:02:09 10° SSE daylight
12 Dec - 03:57:52 10° S 04:02:21 21° SE 04:07:01 10° E visible
12 Dec - 05:40:03 10° SSW 05:46:06 72° WNW 05:52:26 10° NNE daylight
12 Dec - 18:38:28 10° NE 18:40:54 14° ENE 18:43:27 10° ESE daylight
12 Dec - 20:18:59 10° NW 20:23:25 52° WSW 20:28:21 10° SSE daylight
13 Dec - 03:24:30 10° S 03:28:03 16° SE 03:31:44 10° E visible
13 Dec - 05:06:01 10° SSW 05:12:07 82° ESE 05:18:30 10° NNE visible
13 Dec - 06:51:23 10° WSW 06:54:44 15° WNW 06:58:08 10° NW daylight
13 Dec - 19:44:52 10° NNW 19:49:24 81° WSW 19:54:26 10° SSE daylight
13 Dec - 21:31:58 10° WSW 21:33:35 11° SW 21:35:15 10° SSW visible
14 Dec - 02:51:37 10° SSE 02:53:41 12° SE 02:55:47 10° ESE visible
14 Dec - 04:32:06 10° SSW 04:38:05 59° ESE 04:44:21 10° NE visible
14 Dec - 06:16:20 10° WSW 06:20:57 22° WNW 06:25:41 10° NNW daylight
14 Dec - 19:10:58 10° NNW 19:15:27 64° ENE 19:20:23 10° SE daylight
14 Dec - 20:56:16 10° W 20:59:13 16° SW 21:02:22 10° S daylight
15 Dec - 03:58:16 10° SSW 04:04:00 43° SE 04:09:59 10° NE visible
15 Dec - 05:41:46 10° SW 05:47:08 32° WNW 05:52:39 10° N daylight
15 Dec - 18:37:20 10° N 18:41:34 40° ENE 18:46:12 10° SE daylight
15 Dec - 20:21:15 10° W 20:24:57 22° SW 20:28:57 10° S daylight
16 Dec - 03:24:32 10° S 03:29:51 31° SE 03:35:24 10° ENE visible
16 Dec - 05:07:26 10° SW 05:13:15 46° WNW 05:19:17 10° N visible
16 Dec - 18:04:00 10° NNE 18:07:45 26° ENE 18:11:47 10° SE daylight
16 Dec - 19:46:35 10° WNW 19:50:44 32° SW 19:55:19 10° S daylight
17 Dec - 02:50:55 10° S 02:55:39 23° SE 03:00:33 10° E visible
17 Dec - 04:33:16 10° SW 04:39:19 66° WNW 04:45:38 10° NNE visible
17 Dec - 17:31:09 10° NE 17:34:00 16° ENE 17:37:01 10° ESE daylight
17 Dec - 19:12:09 10° NW 19:16:36 47° WSW 19:21:32 10° SSE daylight
18 Dec - 02:17:28 10° S 02:21:22 17° SE 02:25:22 10° E visible
18 Dec - 03:59:13 10° SSW 04:05:22 89° ESE 04:11:45 10° NNE visible
18 Dec - 05:44:58 10° WSW 05:47:53 14° WNW 05:50:51 10° NW daylight
18 Dec - 18:37:59 10° NW 18:42:33 73° WSW 18:47:39 10° SSE daylight
18 Dec - 20:25:40 10° SW 20:26:51 11° SW 20:28:04 10° SSW daylight
19 Dec - 01:44:23 10° SSE 01:47:01 13° SE 01:49:42 10° ESE visible
19 Dec - 03:25:16 10° SSW 03:31:20 65° ESE 03:37:39 10° NE visible
19 Dec - 05:09:44 10° WSW 05:14:08 20° WNW 05:18:37 10° NNW visible
19 Dec - 18:04:03 10° NNW 18:08:34 73° ENE 18:13:38 10° SSE daylight
19 Dec - 19:49:41 10° W 19:52:28 15° SW 19:55:26 10° S daylight
